This is the latest recevied weather packets stored in our database for station/object OK1FET-16. If no packets are shown the sender has not sent any weather packets the latest 10 day(s).
| Time | Temp. | Humidity | Pressure | Rain* | Wind** | Luminosity | Snow |
|---|---|---|---|---|---|---|---|
| 1787940926 | 20° C | 88% | 1067.1 hPa | - | - | - | - |
| 1787940655 | 20.56° C | 87% | 1067.1 hPa | - | - | - | - |
| 1787940384 | 20.56° C | 87% | 1067.1 hPa | - | - | - | - |
| 1787940114 | 20.56° C | 84% | 1067.2 hPa | - | - | - | - |
| 1787939843 | 20.56° C | 84% | 1067.2 hPa | - | - | - | - |
| 1787939573 | 20.56° C | 83% | 1067.1 hPa | - | - | - | - |
| 1787939302 | 21.11° C | 83% | 1067 hPa | - | - | - | - |
| 1787938761 | 21.11° C | 80% | 1067.1 hPa | - | - | - | - |
| 1787938490 | 21.11° C | 79% | 1067.4 hPa | - | - | - | - |
| 1787938219 | 21.11° C | 78% | 1067.4 hPa | - | - | - | - |
| 1787937949 | 21.67° C | 78% | 1067.3 hPa | - | - | - | - |
| 1787937678 | 21.11° C | 78% | 1067.1 hPa | - | - | - | - |
| 1787937407 | 21.11° C | 76% | 1067.2 hPa | - | - | - | - |
| 1787937137 | 21.11° C | 78% | 1067.6 hPa | - | - | - | - |
| 1787936866 | 21.11° C | 78% | 1067.8 hPa | - | - | - | - |
| 1787936595 | 21.11° C | 77% | 1067.8 hPa | - | - | - | - |
| 1787936058 | 21.67° C | 75% | 1068.3 hPa | - | - | - | - |
| 1787936054 | 21.67° C | 75% | 1068.3 hPa | - | - | - | - |
| 1787935783 | 21.67° C | 74% | 1068.3 hPa | - | - | - | - |
| 1787935513 | 21.67° C | 73% | 1068.5 hPa | - | - | - | - |
| 1787935242 | 21.67° C | 71% | 1068.8 hPa | - | - | - | - |
| 1787934971 | 21.67° C | 70% | 1068.8 hPa | - | - | - | - |
| 1787934700 | 22.22° C | 70% | 1068.8 hPa | - | - | - | - |
| 1787934430 | 22.22° C | 69% | 1068.8 hPa | - | - | - | - |
| 1787934159 | 22.22° C | 67% | 1068.7 hPa | - | - | - | - |
* Rain since midnight (hover to see other rain measurements)
** Current wind speed in m/s (hover to see current wind gust speed)